Alliance, NE

3:18 PM MDT on August 28, 2016 (GMT -0600)
Alliance Municipal

Weather History for KAIA - March, 2012

Change the Weather History Date:

Tuesday, March 13, 2012

  Actual Average Record
Temperature  
Mean Temperature 50 °F 36 °F  
Max Temperature 77 °F 51 °F 77 °F (2012)
Min Temperature 23 °F 21 °F -7 °F (1950)
Degree Days  
Heating Degree Days 15 29  
Month to date heating degree days 334 409  
Since 1 July heating degree days 5512 5813  
Cooling Degree Days 0 0  
Month to date cooling degree days 0 0  
Year to date cooling degree days 0 0  
Moisture  
Dew Point 16 °F    
Average Humidity 44    
Maximum Humidity 81    
Minimum Humidity 7    
Precipitation  
Precipitation 0.00 in 0.02 in 1.09 in (1973)
Month to date precipitation 0.00 0.16  
Year to date precipitation 0.86 0.72  
Sea Level Pressure  
Sea Level Pressure 29.78 in    
Wind  
Wind Speed 10 mph (SW)    
Max Wind Speed 25 mph    
Max Gust Speed 30 mph    
Visibility 10 miles    
Events      
T = Trace of Precipitation, MM = Missing Value Source: NWS Daily Summary

Daily Weather History Graph

Daily Weather History Graph

Search for Another Location

Airport or City:

Trip Planner

Search our weather history database for the weather conditions in past years. The results will help you decide how hot, cold, wet, or windy it might be!

Date:

Astronomy

Mar. 13, 2012 Rise Set
Actual Time 7:05 AM MDT 6:56 PM MDT
Civil Twilight 6:37 AM MDT 7:23 PM MDT
Nautical Twilight 6:05 AM MDT 7:56 PM MDT
Astronomical Twilight 5:32 AM MDT 8:29 PM MDT
Moon 12:36 AM MDT (3/13) 10:13 AM MDT (3/13)
Length of Visible Light 12h 46m
Length of Day
11h 50m
Waning Gibbous, 65% of the Moon is Illuminated
Mar 13
Waning Gibbous
Mar 14
Last Quarter
Mar 22
New
Mar 30
First Quarter
Apr 6
Full

Hourly Weather History & Observations

Time (MDT) Temp. Windchill Dew Point Humidity Pressure Visibility Wind Dir Wind Speed Gust Speed Precip Events Conditions
12:53 AM 30.0 °F - 21.0 °F 69% 29.88 in 10.0 mi Calm Calm - N/A   Clear
1:53 AM 30.9 °F 27.5 °F 21.0 °F 67% 29.87 in 10.0 mi West 3.5 mph - N/A   Clear
2:53 AM 27.0 °F - 19.9 °F 75% 29.88 in 10.0 mi Calm Calm - N/A   Clear
3:53 AM 25.0 °F - 19.0 °F 78% 29.87 in 10.0 mi Calm Calm - N/A   Clear
4:53 AM 26.1 °F - 18.0 °F 71% 29.86 in 10.0 mi Calm Calm - N/A   Clear
5:53 AM 25.0 °F 18.1 °F 19.0 °F 78% 29.88 in 10.0 mi South 5.8 mph - N/A   Clear
6:53 AM 25.0 °F 19.3 °F 18.0 °F 75% 29.91 in 10.0 mi SSE 4.6 mph - N/A   Clear
7:53 AM 28.9 °F - 23.0 °F 78% 29.91 in 10.0 mi Calm Calm - N/A   Clear
8:53 AM 41.0 °F - 30.0 °F 65% 29.89 in 10.0 mi Calm Calm - N/A   Clear
9:53 AM 62.1 °F - 24.1 °F 23% 29.82 in 10.0 mi WSW 9.2 mph - N/A   Clear
10:53 AM 70.0 °F - 12.9 °F 11% 29.78 in 10.0 mi West 24.2 mph 28.8 mph N/A   Clear
11:53 AM 71.1 °F - 12.0 °F 10% 29.77 in 10.0 mi West 15.0 mph 23.0 mph N/A   Clear
12:53 PM 72.0 °F - 12.0 °F 10% 29.75 in 10.0 mi SW 19.6 mph 27.6 mph N/A   Clear
1:53 PM 73.0 °F - 15.1 °F 11% 29.72 in 10.0 mi SSW 20.7 mph 26.5 mph N/A   Clear
2:53 PM 75.0 °F - 14.0 °F 10% 29.70 in 10.0 mi SSW 20.7 mph 26.5 mph N/A   Clear
3:53 PM 75.0 °F - 9.0 °F 8% 29.69 in 10.0 mi South 20.7 mph 29.9 mph N/A   Clear
4:53 PM 72.0 °F - 9.0 °F 9% 29.67 in 10.0 mi South 18.4 mph 27.6 mph N/A   Clear
5:53 PM 72.0 °F - 9.0 °F 9% 29.66 in 10.0 mi SSW 17.3 mph 21.9 mph N/A   Clear
6:53 PM 64.9 °F - 10.0 °F 12% 29.67 in 10.0 mi SSW 13.8 mph - N/A   Clear
7:53 PM 53.1 °F - 12.9 °F 20% 29.73 in 10.0 mi SSW 8.1 mph - N/A   Clear
8:53 PM 45.0 °F 40.6 °F 15.1 °F 30% 29.73 in 10.0 mi SW 8.1 mph - N/A   Clear
9:53 PM 46.0 °F 43.1 °F 15.1 °F 29% 29.69 in 10.0 mi SW 5.8 mph - N/A   Clear
10:53 PM 43.0 °F 37.7 °F 15.1 °F 32% 29.70 in 10.0 mi WSW 9.2 mph - N/A   Clear
11:53 PM 37.0 °F 31.6 °F 18.0 °F 46% 29.72 in 10.0 mi SW 6.9 mph - N/A   Clear